Regional Weather Roundup
Issued by NWS

Home | Current Version | Previous Version | Graphics & Text | Print | Product List | Glossary On
Versions: 1 2 3 4 5 6 7 8 9 10 11 12 13 14 15 16 17 18 19 20 21 22 23 24 25 26 27 28 29 30 31 32 33 34 35 36 37 38 39 40 41 42 43 44 45 46 47 48 49 50
000
ASUS43 KMKX 221811
RWRWI

WISCONSIN REGIONAL WEATHER ROUNDUP
NATIONAL WEATHER SERVICE MILWAUKEE/SULLIVAN WI
1200 PM CST MON DEC 22 2014

NOTE: "FAIR" INDICATES FEW OR NO CLOUDS BELOW 12,000 FEET WITH NO
SIGNIFICANT WEATHER AND/OR OBSTRUCTIONS TO VISIBILITY.

WIZ001-002-006>008-014>016-023>028-221900-
NORTHWEST WISCONSIN

CITY           SKY/WX    TMP DP  RH WIND       PRES   REMARKS
SUPERIOR ARPT  CLOUDY    35  34  96 E5        29.70F FOG     WCI  31
6HR MIN TEMP:  32; 6HR MAX TEMP:  36; 6HR PCP:  0.01;

ASHLAND        CLOUDY    37  33  85 S7        29.73F WCI  32
6HR MIN TEMP:  35; 6HR MAX TEMP:  37;

HAYWARD        CLOUDY    34  32  92 SE10G22   29.70F FOG     WCI  26
6HR MIN TEMP:  34; 6HR MAX TEMP:  34; 6HR PCP:  0.01;

SIREN          CLOUDY    35  34  96 SE12      29.67F FOG     WCI  26
6HR MIN TEMP:  35; 6HR MAX TEMP:  35;

CUMBERLAND     FOG       32  32 100 SE10G16   29.68F VSB 1   WCI  24
RICE LAKE      CLOUDY    34  33  96 SE10G16   29.71F FOG     WCI  26
6HR MIN TEMP:  34; 6HR MAX TEMP:  34;

CHETEK         CLOUDY    34  33  95 E12       29.70F FOG     WCI  25
6HR MIN TEMP:  33; 6HR MAX TEMP:  34;

LADYSMITH      CLOUDY    35  33  93 SE10      29.74F FOG     WCI  27
6HR MIN TEMP:  34; 6HR MAX TEMP:  35;

EAU CLAIRE     CLOUDY    37  32  82 SE9       29.69F HAZE    WCI  30
6HR MIN TEMP:  35; 6HR MAX TEMP:  37;

MENOMONIE      CLOUDY    37  34  90 E10       29.69F FOG     WCI  29
6HR MIN TEMP:  35; 6HR MAX TEMP:  37;

NEW RICHMOND   CLOUDY    35  35  99 SE10      29.65F FOG     WCI  28
6HR MIN TEMP:  35; 6HR MAX TEMP:  36; 6HR PCP:  0.01;

OSCEOLA        LGT RAIN  36  36 100 SE12G18   29.67F WCI  28
6HR MIN TEMP:  36; 6HR MAX TEMP:  37; 6HR PCP:  0.03;

$$

WIZ003>005-009-010-017-018-221900-
NORTH CENTRAL WISCONSIN

CITY           SKY/WX    TMP DP  RH WIND       PRES   REMARKS
MANITOWISH WTR CLOUDY    32  32 100 SE8       29.75F FOG     WCI  24
6HR MIN TEMP:  32; 6HR MAX TEMP:  32;

ARBOR VITAE    CLOUDY    34  32  94 SE9       29.76F FOG     WCI  26
6HR MIN TEMP:  33; 6HR MAX TEMP:  34;

WOODRUFF       CLOUDY    34  32  94 SE9       29.76F FOG     WCI  26
6HR MIN TEMP:  33; 6HR MAX TEMP:  34;

RHINELANDER    CLOUDY    31  31 100 SE8       29.77F FOG     WCI  23
6HR MIN TEMP:  31; 6HR MAX TEMP:  31; 6HR PCP: TRACE;

EAGLE RIVER    CLOUDY    32  32 100 SE5       29.76F FOG     WCI  27
6HR MIN TEMP:  32; 6HR MAX TEMP:  32;

LAND O LAKES   CLOUDY    32  32  99 S9        29.77F FOG     WCI  25
6HR MIN TEMP:  32; 6HR MAX TEMP:  32;

PHILLIPS       CLOUDY    32  32  99 SE10      29.74F FOG     WCI  24
6HR MIN TEMP:  32; 6HR MAX TEMP:  32;

TOMAHAWK       CLOUDY    32  31  96 CALM      29.77F FOG
6HR MIN TEMP:  32; 6HR MAX TEMP:  32;

MEDFORD        CLOUDY    32  32  98 SE6       29.74F FOG     WCI  27
6HR MIN TEMP:  32; 6HR MAX TEMP:  32;

MERRILL        CLOUDY    33  32  96 SE7       29.77F FOG     WCI  27
6HR MIN TEMP:  32; 6HR MAX TEMP:  33;

$$

WIZ029-030-035-036-043>047-221900-
CENTRAL WISCONSIN

CITY           SKY/WX    TMP DP  RH WIND       PRES   REMARKS
WAUSAU         CLOUDY    34  32  92 SE8       29.76F FOG     WCI  27
6HR MIN TEMP:  32; 6HR MAX TEMP:  34; 6HR PCP: TRACE;

MOSINEE        CLOUDY    34  34 100 SE8       29.78F FOG     WCI  27
MARSHFIELD     CLOUDY    36  32  85 SE12      29.74F FOG     WCI  28
6HR MIN TEMP:  33; 6HR MAX TEMP:  36; 6HR PCP: TRACE;

STEVENS POINT  CLOUDY    33  31  92 E10G17    29.78F FOG     WCI  25
6HR MIN TEMP:  31; 6HR MAX TEMP:  33;

WAUPACA        CLOUDY    37  32  81 SE6       29.81F HAZE    WCI  33
6HR MIN TEMP:  35; 6HR MAX TEMP:  37;

WAUTOMA        CLOUDY    36  32  85 E6        29.80F WCI  31
6HR MIN TEMP:  34; 6HR MAX TEMP:  36;

WISC RAPIDS    CLOUDY    37  30  75 SE8       29.77F WCI  31
6HR MIN TEMP:  34; 6HR MAX TEMP:  37; 6HR PCP: TRACE;

CAMP DOUGLAS   NOT AVBL
$$

WIZ011>013-019>022-031-037>040-048>050-221900-
NORTHEAST WISCONSIN

CITY           SKY/WX    TMP DP  RH WIND       PRES   REMARKS
ANTIGO         FOG       32  32 100 SE13      29.79F VSB 3/4 WCI  22
6HR MIN TEMP:  30; 6HR MAX TEMP:  32;

SHAWANO        CLOUDY    38  34  84 SE10G16   29.83F FOG     WCI  31
6HR MIN TEMP:  35; 6HR MAX TEMP:  38;

OCONTO         CLOUDY    36  33  90 SE10G17   29.86F WCI  28
6HR MIN TEMP:  34; 6HR MAX TEMP:  36;

STURGEON BAY   CLOUDY    36  28  75 SE17      29.89F WCI  25
6HR MIN TEMP:  36; 6HR MAX TEMP:  36;

GREEN BAY      CLOUDY    37  33  85 SE10      29.85F FOG     WCI  30
6HR MIN TEMP:  34; 6HR MAX TEMP:  37; 6HR PCP:  0.03;

MANITOWOC      CLOUDY    36  33  89 SE13      29.87F WCI  27
6HR MIN TEMP:  36; 6HR MAX TEMP:  37; 6HR PCP: TRACE;

APPLETON       CLOUDY    36  34  93 SE12      29.83F FOG     WCI  27
CLINTONVILLE   CLOUDY    36  32  87 SE8       29.82F FOG     WCI  29
OSHKOSH        CLOUDY    37  32  82 SE13      29.82F HAZE    WCI  29
6HR MIN TEMP:  33; 6HR MAX TEMP:  37; 6HR PCP: TRACE;

$$

WIZ032>034-041-042-053>061-221900-
SOUTHWEST WISCONSIN

CITY           SKY/WX    TMP DP  RH WIND       PRES   REMARKS
LA CROSSE      CLOUDY    41  32  70 SE12      29.70F
6HR MIN TEMP:  37; 6HR MAX TEMP:  41;

SPARTA         CLOUDY    39  32  77 E9        29.72F WCI  32
6HR MIN TEMP:  35; 6HR MAX TEMP:  39;

VIROQUA        CLOUDY    36  36 100 SE17G23   29.69F WCI  26
6HR MIN TEMP:  33; 6HR MAX TEMP:  36;

BOSCOBEL       CLOUDY    39  32  76 VRB7      29.73F WCI  34
6HR MIN TEMP:  36; 6HR MAX TEMP:  39;

PRAIRIE DU CHI DRIZZLE   37  32  81 E13G20    29.69F WCI  29
6HR MIN TEMP:  35; 6HR MAX TEMP:  38;

PLATTEVILLE    CLOUDY    35  33  93 E16G22    29.71F WCI  25
6HR MIN TEMP:  33; 6HR MAX TEMP:  35;

$$

WIZ056-057-062-063-064-067-068-221900-
SOUTH CENTRAL WISCONSIN

CITY           SKY/WX    TMP DP  RH WIND       PRES   REMARKS
REEDSBURG      CLOUDY    35  31  85 E7        29.74F WCI  29
6HR MIN TEMP:  33; 6HR MAX TEMP:  36;

BARABOO/DELLS  CLOUDY    35  31  84 E5        29.75F HAZE    WCI  31
6HR MIN TEMP:  33; 6HR MAX TEMP:  35;

LONE ROCK      LGT RAIN  40  31  70 E14       29.74F WCI  32
6HR MIN TEMP:  38; 6HR MAX TEMP:  40; 6HR PCP: TRACE;

MINERAL POINT  LGT SNOW  36  32  87 E10       29.71F WCI  28
MADISON        CLOUDY    36  29  75 E14       29.77F WCI  27
6HR MIN TEMP:  33; 6HR MAX TEMP:  36; 6HR PCP: TRACE;

MIDDLETON      CLOUDY    37  31  80 SE12      29.76F WCI  29
6HR MIN TEMP:  34; 6HR MAX TEMP:  37;

WATERTOWN      CLOUDY    35  33  92 E13       29.79F WCI  26
6HR MIN TEMP:  32; 6HR MAX TEMP:  35;

MONROE         LGT SNOW  32  32 100 E9        29.74F WCI  24
JANESVILLE     SNOWSHWR  36  32  87 E14       29.78F WCI  27
$$

WIZ051-052-058>065-066-070>072-221900-
SOUTHEAST WISCONSIN

CITY           SKY/WX    TMP DP  RH WIND       PRES   REMARKS
MILWAUKEE      CLOUDY    37  32  82 SE14      29.84F HAZE    WCI  28
6HR MIN TEMP:  34; 6HR MAX TEMP:  37;

WAUKESHA       CLOUDY    36  30  80 E12       29.83F FOG     WCI  27
MILWAUKEE/TIMM CLOUDY    36  30  80 SE12G17   29.85F HAZE    WCI  27
RACINE         CLOUDY    37  32  82 SE10      29.85F HAZE    WCI  30
6HR MIN TEMP:  35; 6HR MAX TEMP:  37;

BURLINGTON     CLOUDY    35  31  84 SE9       29.81F WCI  28
6HR MIN TEMP:  30; 6HR MAX TEMP:  35;

KENOSHA        CLOUDY    37  32  82 SE14      29.83F HAZE    WCI  28
6HR MIN TEMP:  33; 6HR MAX TEMP:  38;

FOND DU LAC    CLOUDY    38  32  79 SE17G23   29.82F WCI  28
6HR MIN TEMP:  33; 6HR MAX TEMP:  38; 6HR PCP: TRACE;

SHEBOYGAN      CLOUDY    36  31  82 SE13      29.86F HAZE    WCI  27
6HR MIN TEMP:  36; 6HR MAX TEMP:  37; 6HR PCP: TRACE;

WEST BEND      CLOUDY    36  32  87 SE13      29.83F WCI  27
JUNEAU         CLOUDY    35  32  88 E9        29.81F FOG     WCI  28
6HR MIN TEMP:  32; 6HR MAX TEMP:  35;

$$

LSZ147-162-221900-
LAKE SUPERIOR

STATION/POSITION TIME  TEMP    WIND        PRES    WAVE
                       AIR SEA DIR/SP/G            HT/PER
                 (UTC) (F)     (DEG/KT/KT) (MB)    (FT/S)
DEVILS ISLAND    1800   36     140/  9/ 10 1007.6F
PORT WING        1700   37     160/  3/  9 1007.1F
SAXON HARBOR     1700   39     160/  7/ 11 1007.8F
$$

LMZ867-665-643>646-221900-
LAKE MICHIGAN

STATION/POSITION TIME  TEMP    WIND        PRES    WAVE
                       AIR SEA DIR/SP/G            HT/PER



USA.gov is the U.S. government's official web portal to all federal, state and local government web resources and services.